Volver al catálogo

STARLINK-4571

ActivoComunicacionesSSO
NORAD 53688·PAYLOAD·🇺🇸 United States

Lanzado Aug 31, 2022 desde Vandenberg Space Force Base

Loading…

Próximos Pases (próximas 24 horas)

TLE

ActualizadoSource: CelesTrak SupGP

Época: Sep 15, 2026, 01:48 UTC

1 53688C 22105AS  26258.07548611  .00068768  00000+0  47743-2 0  2584
2 53688  97.2847 132.1357 0002595  78.8055 107.1812 15.05623410    13

Sigue STARLINK-4571 en tiempo real con AllMySat

Download on the App Store